Tracking 29892 objects as of 21-Nov-2024
HD Live streaming from Space Station
objects crossing your sky now

STARLINK-5625

Track STARLINK-5625 now!
10-day predictions
STARLINK-5625 is classified as:


NORAD ID: 55368
Int'l Code: 2023-013AP
Perigee: 565.3 km
Apogee: 567.1 km
Inclination: 43.0 °
Period: 95.8 minutes
Semi major axis: 6937 km
RCS: Unknown
Launch date: January 26, 2023
Source: United States (US)
Launch site: AIR FORCE EASTERN TEST RANGE (AFETR)
Your satellite tracking list
Your tracking list is empty




NASA's NSSDC Master Catalog

Two Line Element Set (TLE):
1 55368U 23013AP  24325.38890906  .00000088  00000-0  21583-4 0  9994
2 55368  43.0049 344.4212 0001339 269.5183  90.5506 15.02535431100510
Source of the keplerian elements: AFSPC